Temp
18 19 19 21 24 27 28 30 31 30 29 29 29 29 30 29 29 27 25 24 24 22 23 23 23 22 22 22 21 20 18 18 18 18 18 17 17 17 17 17 16 16 16 16 16 16 16 16 16
17 19 20 23 25 27 30 32 30 30 29 27 27 28 28 29 27 26 25 23 23 22 23 23 23 22 22 22 21 20 19 18 18 18 17 17 17 16 16 16 16 16 16 16 16 16 15 16 16
18 19 22 26 26 27 30 31 30 31 27 27 27 27 28 28 27 26 25 23 23 22 22 23 22 22 22 21 21 20 19 18 18 18 17 16 16 15 14 14 14 15 16 15 16 16 15 15 15
19 20 22 24 26 29 30 31 30 29 27 27 28 28 27 27 26 26 25 23 23 22 21 23 22 22 21 21 21 20 19 18 18 18 16 15 14 14 14 14 13 13 15 15 15 15 15 15 15
20 22 24 25 26 29 30 29 29 28 28 27 28 28 27 26 26 25 24 23 22 21 20 22 22 21 21 20 20 20 19 18 18 17 16 15 15 15 15 14 13 13 13 15 15 15 15 15 15
21 23 24 25 27 29 30 28 28 27 27 27 27 28 28 26 25 24 24 23 21 20 20 22 21 21 20 20 19 19 18 18 17 16 15 15 16 17 17 15 14 15 14 15 15 16 15 14 14
22 25 24 26 27 29 29 27 27 27 27 27 27 28 27 26 24 22 23 22 20 19 21 22 21 21 20 20 20 18 18 17 16 16 15 15 15 16 16 15 15 15 14 15 15 15 15 14 14
21 24 24 26 26 27 29 28 26 27 28 27 26 27 28 24 22 22 22 21 20 18 19 21 21 21 20 20 20 18 17 17 16 15 15 15 16 16 15 15 15 15 14 15 15 15 14 14 14
21 22 23 25 26 27 28 26 26 26 27 25 26 26 25 23 22 22 21 21 20 18 17 17 18 20 20 20 20 19 17 16 16 15 15 15 15 15 15 14 14 14 15 14 14 14 14 13 13
22 22 23 26 27 27 27 26 26 25 26 26 25 24 24 24 23 23 23 21 20 19 18 17 16 17 19 20 20 19 18 17 16 15 15 14 14 14 14 13 14 14 14 13 13 13 13 13 13
21 21 24 25 25 25 25 25 25 26 26 26 26 25 24 24 24 24 24 23 22 20 19 18 17 16 16 20 19 19 18 14 14 14 14 14 13 14 13 13 13 13 13 12 12 12 12 12 12
21 22 22 23 23 24 24 23 24 25 25 25 26 25 24 24 24 24 24 24 23 22 19 18 17 16 17 19 19 16 16 15 14 14 14 14 13 14 13 13 12 13 13 13 13 12 12 12 13
21 22 22 22 22 21 22 23 23 23 24 24 24 24 24 23 24 24 24 24 23 23 21 19 17 16 18 18 17 16 16 14 14 14 14 14 13 13 13 13 13 13 13 13 13 12 12 12 12
20 21 22 21 21 22 22 22 22 22 22 23 23 23 23 23 23 24 24 24 23 22 22 19 17 17 16 19 19 17 18 17 17 16 15 14 14 14 12 13 13 12 12 12 12 13 12 12 12
19 19 20 21 21 22 21 21 22 22 23 23 23 23 23 24 24 24 24 24 24 23 22 20 18 17 16 18 18 18 15 15 17 17 15 14 14 13 13 12 12 12 12 12 12 11 11 12 12
18 19 19 21 22 22 21 20 23 24 24 24 23 23 24 24 24 24 24 24 24 24 22 20 19 17 16 15 15 15 17 16 15 16 15 14 14 13 13 12 12 12 12 11 11 11 11 11 11
18 18 19 21 23 23 22 21 24 23 24 24 24 24 24 24 24 24 24 24 24 24 23 22 19 17 16 15 15 14 15 16 14 15 15 14 13 13 12 12 12 12 12 11 11 11 11 10 12
17 18 20 20 22 23 21 21 23 23 24 23 24 24 24 24 24 24 23 23 23 23 22 21 20 17 16 15 14 14 14 16 16 15 15 14 13 12 13 12 12 12 12 11 11 11 11 11 12
17 17 17 19 22 21 21 22 23 24 24 24 23 23 24 24 23 23 23 23 23 23 21 19 19 17 15 14 14 14 14 16 15 15 14 14 13 12 12 12 12 12 11 11 12 11 11 11 12
19 17 17 19 20 20 21 21 22 22 23 24 24 24 23 23 23 23 23 23 23 21 19 19 18 17 15 14 14 13 13 14 13 12 13 14 13 12 12 12 11 11 11 11 11 11 10 11 12
18 18 18 18 19 20 20 20 21 22 22 22 23 23 23 23 23 23 23 23 22 20 19 18 18 17 15 14 14 13 13 13 13 13 13 12 12 12 12 12 11 11 11 11 11 10 11 11 11
16 19 18 18 17 17 20 19 21 23 24 24 24 23 23 23 23 23 23 22 21 20 19 18 18 17 15 13 12 14 13 12 13 12 12 11 11 11 12 11 11 11 11 10 10 10 11 11 10
16 18 18 18 17 17 18 19 21 23 23 23 24 23 23 22 21 21 21 21 22 21 18 16 17 17 14 13 14 13 15 13 13 13 12 11 12 11 12 11 11 11 11 10 10 10 10 11 11
16 16 17 17 17 15 17 19 20 22 22 23 23 23 21 20 20 20 21 19 20 19 16 14 15 16 14 13 14 14 14 14 14 13 12 11 11 12 11 11 11 11 10 10 10 10 11 10 10
15 14 14 13 15 15 19 18 20 22 24 24 23 21 20 20 20 20 20 19 19 17 14 11 12 14 13 13 14 14 14 14 13 13 12 11 12 11 11 11 10 10 10 10 10 10 10 10 10
14 14 14 13 14 16 19 18 20 23 24 22 21 20 19 19 19 18 18 17 17 15 13 11 12 12 12 13 13 13 13 12 12 11 12 11 11 11 11 11 10 10 10 10 10 10 10 10 9
14 14 16 15 17 16 18 19 21 22 22 21 20 19 19 18 18 17 16 14 14 12 11 10 11 11 11 12 12 12 12 12 11 11 11 11 11 11 11 10 10 10 10 10 10 10 10 10 9
15 16 14 15 13 14 18 19 20 20 21 21 20 20 18 17 15 14 13 12 11 10 10 10 10 11 11 12 11 12 11 11 11 11 11 10 11 10 10 10 10 9 9 9 9 9 9 10 9
14 14 16 16 16 15 16 18 22 22 21 21 20 19 18 17 15 13 10 9 9 9 9 9 9 10 10 11 11 11 11 11 10 11 10 11 11 11 11 10 9 8 8 8 9 9 9 9 9
14 15 16 14 14 16 17 18 21 22 21 21 19 18 17 15 14 13 10 9 9 9 9 9 9 9 10 10 10 11 10 10 10 10 10 10 10 10 10 9 8 8 8 8 8 8 8 9 9
Height
1499 1500 1503 1503 1498 1476 1463 1449 1442 1450 1455 1456 1458 1457 1458 1458 1461 1473 1476 1477 1480 1483 1484 1486 1487 1488 1488 1488 1489 1489 1490 1492 1493 1495 1497 1500 1501 1503 1504 1507 1509 1511 1511 1513 1515 1519 1522 1523 1526
1499 1503 1503 1495 1489 1471 1451 1435 1446 1448 1454 1460 1463 1463 1464 1462 1468 1472 1475 1478 1481 1483 1484 1486 1487 1488 1489 1489 1489 1489 1489 1491 1492 1495 1497 1500 1502 1503 1507 1505 1509 1510 1514 1513 1515 1520 1524 1524 1527
1497 1501 1499 1485 1476 1468 1447 1432 1442 1447 1459 1463 1463 1464 1463 1462 1468 1470 1473 1478 1482 1484 1484 1485 1487 1488 1488 1489 1489 1490 1490 1490 1491 1494 1497 1501 1504 1506 1499 1506 1514 1515 1514 1514 1516 1518 1524 1527 1528
1500 1499 1497 1482 1467 1447 1445 1437 1444 1448 1459 1461 1461 1463 1465 1465 1468 1470 1474 1476 1481 1484 1485 1484 1486 1488 1489 1489 1490 1489 1490 1491 1491 1494 1497 1501 1506 1504 1503 1512 1517 1509 1515 1515 1519 1522 1524 1528 1530
1498 1491 1481 1471 1463 1450 1441 1448 1448 1454 1454 1460 1460 1459 1463 1467 1468 1471 1473 1476 1478 1482 1482 1483 1485 1487 1488 1489 1490 1490 1490 1491 1492 1494 1497 1500 1501 1507 1508 1510 1517 1495 1517 1518 1520 1523 1526 1528 1530
1492 1486 1476 1467 1453 1444 1442 1450 1454 1457 1456 1458 1460 1460 1461 1464 1468 1470 1472 1475 1476 1478 1479 1481 1484 1486 1487 1488 1489 1491 1491 1492 1494 1495 1497 1497 1499 1505 1508 1510 1513 1517 1517 1520 1522 1522 1525 1529 1531
1486 1475 1469 1460 1453 1442 1439 1450 1454 1455 1455 1455 1459 1458 1460 1463 1467 1469 1471 1474 1475 1475 1475 1478 1482 1485 1486 1487 1488 1490 1491 1493 1494 1496 1498 1498 1500 1505 1508 1508 1510 1514 1516 1520 1521 1524 1525 1529 1532
1482 1475 1466 1456 1456 1449 1441 1444 1454 1453 1451 1452 1457 1455 1454 1459 1466 1468 1469 1472 1474 1474 1473 1475 1479 1482 1485 1486 1486 1488 1490 1492 1494 1496 1499 1500 1502 1505 1507 1508 1510 1513 1517 1521 1522 1524 1527 1530 1531
1481 1475 1462 1456 1453 1446 1444 1450 1452 1451 1449 1454 1456 1457 1457 1459 1464 1467 1467 1470 1471 1473 1474 1474 1476 1479 1482 1484 1485 1487 1489 1491 1493 1495 1497 1500 1502 1503 1505 1508 1510 1513 1518 1520 1523 1524 1527 1531 1532
1476 1465 1454 1448 1445 1444 1445 1448 1449 1452 1453 1450 1455 1458 1458 1460 1462 1463 1465 1467 1468 1470 1472 1473 1474 1475 1478 1481 1483 1484 1486 1488 1490 1492 1494 1498 1500 1502 1504 1507 1511 1515 1516 1519 1524 1525 1527 1531 1532
1468 1458 1454 1447 1448 1448 1448 1452 1451 1448 1448 1445 1449 1452 1455 1456 1458 1460 1461 1462 1465 1467 1470 1471 1471 1472 1474 1476 1479 1481 1483 1485 1489 1490 1492 1495 1498 1500 1503 1505 1509 1513 1515 1517 1522 1524 1526 1529 1530
1462 1457 1456 1452 1450 1448 1450 1451 1448 1446 1446 1447 1445 1447 1450 1454 1455 1456 1457 1459 1460 1463 1466 1467 1468 1468 1469 1473 1476 1479 1479 1485 1487 1488 1489 1491 1494 1497 1501 1505 1507 1508 1512 1515 1519 1522 1525 1527 1530
1456 1456 1454 1453 1451 1451 1450 1446 1445 1443 1445 1446 1446 1445 1448 1450 1450 1451 1453 1455 1456 1458 1461 1463 1465 1465 1464 1468 1471 1475 1476 1479 1482 1485 1485 1488 1490 1494 1498 1502 1503 1506 1510 1513 1517 1520 1523 1526 1531
1457 1453 1447 1448 1447 1446 1446 1442 1443 1438 1443 1442 1442 1441 1443 1444 1444 1446 1447 1450 1452 1454 1456 1458 1459 1461 1461 1462 1465 1469 1472 1474 1476 1479 1482 1484 1487 1491 1494 1498 1500 1503 1506 1510 1514 1518 1521 1525 1531
1456 1452 1448 1444 1443 1440 1442 1433 1430 1432 1433 1432 1432 1433 1434 1434 1436 1437 1440 1443 1445 1449 1452 1452 1453 1456 1458 1455 1460 1463 1468 1470 1472 1475 1478 1480 1483 1486 1490 1493 1497 1500 1503 1506 1511 1514 1519 1524 1529
1456 1449 1442 1433 1432 1431 1436 1416 1419 1417 1417 1416 1422 1423 1424 1425 1428 1429 1432 1436 1439 1441 1444 1447 1448 1449 1452 1452 1456 1458 1461 1464 1466 1469 1472 1476 1478 1481 1485 1489 1492 1496 1499 1503 1507 1511 1516 1521 1527
1444 1440 1433 1426 1420 1419 1424 1419 1412 1413 1411 1410 1414 1415 1416 1418 1420 1422 1425 1429 1432 1435 1438 1441 1442 1444 1447 1448 1452 1454 1455 1459 1461 1463 1466 1470 1473 1476 1480 1484 1488 1493 1495 1499 1504 1509 1515 1518 1524
1439 1432 1424 1420 1417 1413 1416 1413 1411 1409 1407 1410 1408 1407 1409 1411 1413 1417 1421 1423 1425 1429 1432 1435 1435 1437 1441 1443 1447 1449 1451 1453 1456 1459 1460 1464 1468 1472 1475 1479 1483 1487 1491 1495 1500 1506 1512 1517 1521
1437 1434 1430 1422 1409 1411 1407 1404 1401 1402 1400 1400 1403 1404 1404 1406 1409 1412 1415 1417 1419 1422 1425 1427 1428 1430 1433 1436 1438 1438 1442 1446 1451 1454 1456 1458 1462 1466 1471 1474 1478 1483 1486 1490 1495 1501 1508 1514 1519
1419 1425 1422 1414 1413 1411 1406 1403 1402 1400 1396 1393 1394 1395 1399 1402 1404 1406 1408 1411 1413 1416 1418 1420 1421 1424 1427 1428 1430 1434 1441 1443 1448 1450 1451 1453 1456 1461 1465 1469 1473 1478 1480 1486 1490 1496 1503 1510 1515
1413 1414 1408 1415 1409 1405 1407 1398 1396 1394 1392 1389 1387 1389 1391 1393 1395 1398 1400 1403 1406 1410 1412 1414 1415 1418 1420 1421 1428 1435 1439 1438 1441 1443 1447 1448 1450 1454 1460 1465 1469 1474 1478 1477 1484 1491 1496 1503 1510
1413 1403 1407 1410 1415 1412 1400 1393 1386 1372 1368 1369 1372 1378 1382 1385 1388 1391 1393 1398 1400 1404 1407 1409 1410 1413 1413 1416 1423 1429 1431 1430 1435 1439 1441 1444 1446 1449 1454 1458 1463 1467 1471 1473 1479 1484 1491 1499 1504
1405 1405 1402 1401 1404 1407 1401 1391 1373 1364 1366 1365 1368 1371 1375 1381 1385 1389 1391 1392 1394 1397 1400 1404 1406 1409 1408 1412 1419 1424 1428 1429 1432 1436 1439 1440 1441 1444 1448 1453 1456 1459 1462 1466 1472 1478 1485 1493 1498
1410 1407 1399 1400 1398 1407 1390 1385 1370 1362 1361 1359 1361 1368 1375 1383 1385 1387 1388 1390 1390 1390 1395 1398 1402 1405 1406 1410 1416 1419 1423 1426 1428 1430 1434 1437 1438 1441 1443 1446 1450 1454 1459 1461 1463 1471 1479 1486 1492
1407 1406 1402 1406 1397 1386 1374 1380 1364 1355 1351 1353 1360 1372 1381 1383 1384 1385 1387 1387 1387 1390 1393 1393 1396 1401 1402 1406 1412 1415 1420 1423 1424 1426 1429 1432 1434 1436 1439 1442 1444 1447 1450 1455 1457 1463 1470 1479 1485
1397 1398 1389 1394 1387 1376 1365 1370 1354 1351 1354 1361 1364 1374 1380 1381 1383 1385 1387 1388 1388 1390 1391 1390 1393 1396 1398 1403 1408 1412 1415 1418 1420 1421 1425 1427 1429 1431 1433 1436 1438 1441 1443 1447 1451 1455 1462 1471 1478
1384 1384 1381 1378 1368 1371 1356 1353 1351 1346 1351 1359 1371 1374 1377 1380 1382 1385 1388 1388 1388 1389 1389 1389 1392 1393 1396 1400 1405 1408 1411 1413 1415 1417 1420 1423 1423 1425 1427 1430 1431 1433 1435 1438 1443 1446 1456 1463 1470
1372 1374 1379 1376 1386 1378 1355 1347 1347 1348 1353 1357 1366 1372 1377 1382 1385 1387 1388 1388 1388 1387 1386 1387 1389 1391 1394 1398 1402 1405 1407 1410 1411 1413 1415 1417 1418 1421 1423 1424 1424 1425 1427 1431 1435 1443 1449 1455 1463
1368 1370 1365 1368 1370 1373 1367 1351 1331 1332 1342 1351 1361 1370 1377 1382 1385 1388 1388 1387 1386 1387 1386 1385 1387 1390 1392 1396 1399 1402 1405 1407 1408 1410 1411 1413 1415 1416 1419 1419 1419 1421 1424 1428 1432 1438 1444 1448 1459
1368 1360 1359 1367 1372 1364 1361 1352 1333 1326 1339 1350 1361 1371 1377 1383 1386 1389 1389 1388 1387 1387 1386 1386 1386 1389 1392 1394 1396 1400 1401 1403 1405 1407 1408 1410 1412 1413 1415 1416 1417 1419 1422 1426 1431 1436 1442 1447 1455
Wind_Speed
9 6 4 9 8 8 16 18 7 3 4 9 4 5 5 4 2 3 5 9 13 13 9 7 6 4 3 3 5 6 9 11 13 15 18 20 19 20 21 21 20 19 19 18 17 16 15 15 14
7 7 9 13 9 14 14 17 8 10 5 5 7 6 5 6 5 7 11 12 14 13 9 5 4 4 2 4 6 6 8 10 11 14 18 19 21 23 24 23 22 22 19 18 18 15 16 16 16
11 10 14 9 15 16 16 5 6 7 7 10 9 11 8 7 6 9 12 14 14 13 11 6 8 6 5 6 7 8 9 10 11 13 15 18 19 20 13 18 13 17 20 19 19 18 16 17 15
8 9 14 12 20 17 16 11 6 6 10 12 13 8 7 2 9 8 12 16 14 13 12 11 11 8 7 7 8 9 10 11 11 10 12 15 14 15 18 13 15 18 17 19 16 16 16 15 14
14 14 14 18 22 23 9 11 3 7 8 11 15 11 7 10 7 9 13 16 16 15 15 14 12 10 8 8 9 10 12 12 11 12 14 17 20 12 7 15 20 9 10 14 15 13 12 16 17
17 18 15 16 22 21 13 9 11 13 12 13 17 17 11 12 9 10 14 17 16 16 17 14 13 11 8 7 9 10 12 12 11 12 14 20 19 12 7 18 12 14 14 13 13 12 14 17 19
18 14 19 21 21 21 7 12 12 16 17 17 14 16 16 11 6 8 13 16 15 16 17 16 15 13 10 7 8 10 12 13 14 14 17 19 18 13 15 14 17 18 17 15 12 14 18 20 17
23 15 25 21 17 24 15 12 12 20 19 10 9 10 17 13 5 7 11 14 16 15 17 18 17 15 12 9 9 10 12 15 16 17 18 18 17 14 12 13 19 18 16 16 15 14 20 20 18
18 15 19 22 21 20 16 7 17 14 18 9 17 14 4 6 7 8 10 13 15 16 16 16 17 17 15 12 10 11 13 17 18 19 20 19 19 17 14 20 21 18 17 14 15 17 20 20 19
19 16 26 19 17 16 14 8 18 13 18 17 14 13 9 7 9 11 12 14 16 18 18 18 18 17 18 15 14 13 14 17 20 21 21 22 19 19 20 20 22 21 14 11 15 16 18 21 20
25 25 23 21 23 20 15 21 19 18 17 23 24 21 18 15 12 13 14 15 16 18 18 20 20 19 19 18 17 15 15 14 16 20 20 23 21 21 22 22 24 23 15 14 19 16 19 21 19
25 30 27 25 30 23 20 24 24 24 22 24 18 19 12 17 17 17 16 16 17 18 19 21 22 21 24 20 21 16 18 16 16 18 23 23 23 24 22 20 19 25 20 22 22 22 19 19 19
28 25 31 29 27 27 29 27 24 28 25 24 25 26 22 24 23 20 19 18 17 19 20 22 23 23 24 26 22 20 21 19 19 19 22 25 24 26 26 21 22 23 24 25 22 19 21 20 19
26 28 26 28 32 30 25 27 28 32 29 31 33 30 28 29 27 24 23 24 20 19 21 23 24 25 25 27 29 27 22 22 24 24 23 26 27 28 27 26 24 20 25 30 25 23 25 23 21
26 25 23 25 25 24 24 28 29 31 32 35 32 31 32 32 30 30 28 27 25 22 21 24 25 26 27 29 31 30 23 22 25 25 25 28 28 30 29 27 27 27 28 27 22 27 26 23 21
23 22 22 21 25 27 27 34 24 19 20 38 34 35 34 32 31 30 29 28 27 24 23 24 25 28 30 26 25 24 27 25 24 23 24 27 27 29 30 28 30 27 24 26 28 29 28 24 21
20 22 26 26 21 18 16 27 22 29 29 17 21 21 24 25 27 29 26 26 26 24 23 22 26 28 31 28 25 25 26 27 25 24 23 24 27 27 30 32 32 29 29 28 31 29 27 28 25
20 20 21 22 19 20 22 25 22 25 19 18 22 24 22 24 23 22 23 24 24 23 22 22 25 29 31 30 28 25 26 29 28 26 24 22 24 25 27 31 31 32 32 31 32 28 29 27 25
20 25 27 26 20 20 21 22 19 22 28 25 27 27 23 22 20 23 24 24 25 23 22 21 24 28 32 33 35 39 35 30 29 26 24 24 24 24 27 28 32 32 34 33 32 30 33 30 27
25 27 30 28 26 21 24 23 22 22 25 27 27 28 27 27 28 26 25 25 25 24 23 21 23 27 32 38 41 31 26 25 20 20 20 23 26 29 29 29 32 32 35 34 34 35 40 34 29
30 27 28 26 24 19 23 28 25 27 30 35 36 34 30 29 28 28 26 25 22 25 23 22 23 26 33 40 33 23 22 25 27 26 23 21 22 28 31 32 33 32 32 44 41 39 43 40 36
26 27 26 23 20 18 21 22 22 24 25 23 28 34 33 29 28 24 20 21 23 26 22 22 23 25 35 33 29 29 25 27 24 19 19 22 23 26 30 30 33 33 35 41 39 42 43 40 39
31 25 25 22 18 20 25 18 15 15 19 17 14 16 17 9 11 15 18 19 21 23 21 20 22 25 31 29 28 30 25 18 15 17 18 20 18 22 25 30 34 33 44 48 46 45 44 45 41
26 23 26 20 16 17 25 22 19 17 12 11 4 2 7 7 7 7 8 9 14 13 16 19 21 25 28 31 30 27 26 21 19 18 17 19 20 22 25 27 30 33 36 48 47 46 49 46 42
28 22 17 16 15 20 23 21 19 13 11 11 15 12 10 8 4 1 1 1 5 11 14 16 20 24 29 33 30 26 23 22 19 17 17 18 20 25 29 31 31 34 31 43 54 47 51 50 46
28 26 17 24 16 21 22 19 18 17 16 10 11 13 10 6 5 6 5 3 2 7 10 14 17 24 32 30 29 24 22 19 17 18 15 18 19 23 29 30 29 33 34 33 44 51 49 53 49
26 25 27 26 20 14 13 18 19 15 13 14 13 13 9 7 6 8 7 6 2 3 8 12 17 23 28 31 26 22 20 18 15 15 14 15 20 21 21 24 28 29 32 35 46 53 49 54 53
23 21 23 18 23 23 17 18 16 19 14 21 15 10 9 8 7 7 7 7 5 2 6 10 17 20 23 23 25 19 19 18 15 15 16 17 17 18 17 17 19 23 31 40 46 49 50 49 53
13 19 21 18 19 18 15 15 16 14 18 19 16 13 9 8 8 7 8 7 4 3 3 7 13 20 20 22 23 19 17 15 15 14 16 15 14 13 12 12 14 17 25 39 44 46 49 55 54
21 21 23 11 21 18 16 14 12 12 14 15 14 13 12 12 11 11 10 9 6 4 2 2 9 16 18 23 20 18 15 14 14 15 13 14 12 8 7 8 11 15 18 26 35 40 45 49 48
Wind_Direction
215 225 246 244 245 232 255 241 236 217 210 247 276 185 262 3 49 16 117 130 144 151 129 102 104 98 72 221 217 218 214 218 222 221 221 220 212 207 199 185 177 173 168 166 164 164 162 161 157
198 222 232 262 249 250 240 227 187 234 106 166 219 180 238 208 118 115 130 144 151 154 150 136 162 153 193 236 229 219 208 211 217 223 224 220 217 210 201 183 176 170 173 169 163 161 165 161 156
179 212 259 230 235 254 270 147 212 167 129 198 200 214 218 240 156 146 148 153 162 169 173 185 191 193 212 239 230 218 208 210 215 223 223 219 220 213 219 164 181 181 171 162 158 158 164 163 160
197 208 251 257 252 244 268 312 234 151 204 212 217 187 217 118 156 168 161 158 166 172 175 206 198 204 220 236 236 224 216 212 219 225 213 214 203 212 249 212 211 195 169 157 162 165 169 176 169
224 250 242 246 249 259 252 276 155 233 251 207 220 215 222 180 162 162 170 174 169 174 191 211 204 206 218 234 231 228 223 216 216 218 215 202 203 152 126 200 193 254 170 165 173 170 177 181 166
228 236 246 251 251 248 248 235 226 228 243 226 219 233 210 160 176 171 174 183 177 179 204 213 211 209 210 227 234 226 226 223 215 216 214 212 223 204 223 211 209 195 181 190 183 170 175 172 167
242 243 246 259 271 279 209 219 241 241 242 223 221 222 226 164 165 165 179 187 185 190 209 219 217 214 210 218 232 223 225 219 220 210 217 222 234 233 197 228 218 198 181 200 191 179 177 177 177
242 252 262 260 260 267 283 214 237 240 237 218 226 240 227 151 169 178 182 190 193 194 205 217 217 216 219 218 224 222 220 219 214 218 223 233 230 231 237 212 190 190 198 203 197 185 186 183 179
238 254 249 250 250 259 266 272 257 246 246 199 216 248 105 148 175 181 179 192 195 200 199 199 208 218 220 222 218 221 218 217 217 219 225 230 232 216 247 191 197 194 193 205 202 193 190 189 184
231 243 243 253 268 271 285 259 267 207 240 233 217 228 224 208 200 205 201 204 203 207 206 201 199 210 217 220 220 218 218 220 222 219 219 221 218 227 213 196 196 192 202 222 213 202 192 191 181
231 243 265 255 254 267 270 269 260 267 246 230 222 213 223 222 225 223 224 218 217 214 210 206 203 204 211 218 221 220 218 209 218 216 215 219 223 215 196 201 200 200 223 205 202 205 188 185 178
252 253 261 266 267 267 255 262 269 262 253 257 252 245 235 247 242 236 231 230 221 217 215 211 207 203 217 219 218 211 217 209 211 222 219 220 216 205 192 199 199 213 217 203 195 193 187 184 182
257 255 260 262 258 260 270 265 262 262 258 251 254 254 247 247 246 241 238 237 233 225 218 217 210 208 225 216 215 203 221 212 211 211 223 221 211 203 196 209 216 222 210 202 197 190 185 183 177
279 273 270 255 258 256 257 262 259 255 253 255 251 250 245 244 242 240 235 237 234 232 221 216 215 211 217 225 221 215 224 228 229 230 226 229 226 222 218 215 216 210 210 205 210 205 189 184 174
267 268 268 262 258 262 259 263 252 259 253 249 243 242 241 241 240 237 236 238 238 233 228 221 216 211 209 230 224 224 217 226 232 232 233 231 233 226 224 217 211 206 216 216 214 200 190 185 177
277 264 264 257 242 242 237 258 258 272 257 232 239 245 243 243 241 237 236 239 237 236 227 225 219 215 211 217 215 212 218 226 234 234 233 232 233 229 224 215 218 211 220 211 209 198 194 189 182
247 255 259 263 252 233 238 256 254 249 257 252 238 238 233 234 236 233 231 229 232 231 234 230 221 217 214 211 208 205 225 218 227 236 238 232 232 227 223 223 221 219 218 214 208 208 212 193 177
253 257 258 259 251 257 233 252 259 259 256 240 253 252 244 235 227 224 229 230 231 232 232 232 224 216 215 210 207 207 213 223 227 233 240 238 229 229 223 219 222 219 217 214 209 216 200 187 182
264 270 268 269 272 250 252 266 260 253 249 242 239 253 245 243 238 240 239 236 233 232 233 231 216 214 209 206 205 211 211 219 226 234 237 235 228 227 223 222 219 220 217 219 213 208 196 193 187
256 245 252 260 267 270 270 258 262 272 273 261 254 246 243 249 247 244 243 239 235 230 231 224 213 210 210 210 213 210 204 219 220 224 235 239 226 223 226 223 225 223 209 219 219 203 192 192 192
255 253 254 257 268 255 254 263 255 256 258 257 252 250 248 244 244 246 243 239 225 229 225 220 213 208 211 216 209 202 201 211 215 224 228 233 232 223 226 223 223 227 230 217 219 204 202 196 197
269 249 255 259 262 257 239 262 257 252 241 234 240 236 240 243 245 246 245 240 235 231 228 222 212 206 215 219 202 202 204 209 218 226 227 227 226 229 225 226 224 227 230 221 225 207 204 200 196
257 261 262 253 244 253 252 258 258 253 254 220 221 228 219 217 231 236 236 241 239 230 215 219 210 202 215 206 200 201 202 204 207 204 212 227 231 228 228 229 227 225 232 220 221 212 206 201 195
278 276 251 259 242 239 240 244 251 257 215 233 149 190 156 196 210 225 235 248 231 201 199 214 206 203 210 195 196 199 202 201 200 200 209 220 225 225 229 227 228 228 225 218 223 225 213 206 196
252 254 236 228 228 233 231 233 242 247 268 209 161 150 176 168 155 209 313 280 199 205 207 217 203 203 203 193 195 199 203 204 202 201 208 214 218 229 227 232 232 241 227 229 216 223 215 210 199
233 243 234 222 218 238 232 250 237 232 234 220 141 157 164 152 108 80 64 61 145 201 219 219 204 207 202 190 197 199 202 204 205 208 210 222 226 241 242 242 241 240 237 240 227 221 219 215 199
222 229 241 248 244 254 240 217 244 239 215 151 178 172 151 120 88 69 61 51 43 226 225 230 204 215 208 205 196 197 200 204 208 209 213 222 230 237 245 245 243 242 244 237 231 220 220 217 203
231 217 230 227 240 249 234 237 215 214 191 167 188 175 143 121 97 73 54 39 23 352 250 226 209 210 215 196 203 198 202 207 211 199 216 221 231 241 240 246 245 243 235 230 223 221 211 212 202
193 233 230 226 221 245 246 244 260 236 180 171 180 156 147 125 103 76 55 42 42 23 259 233 216 210 210 190 201 196 199 203 207 202 222 234 230 237 244 255 242 226 224 217 216 215 200 196 205
308 214 226 216 230 231 249 251 339 164 150 180 136 151 140 120 99 78 59 47 25 56 40 263 213 206 210 198 194 191 197 200 202 204 216 225 232 220 239 243 224 220 216 218 216 211 205 202 207